Temp
19 19 20 21 21 21 21 21 21 20 19 20 21 21 21 20 20 20 20 20 20 20 20 20 19 19 20 20 20 20 20 21 21 21 21 21 21 20 21 20 20 20 20
19 19 19 20 20 20 20 20 20 20 19 19 19 19 19 19 20 20 20 20 19 19 18 19 19 19 19 19 19 19 20 20 20 21 21 21 21 21 20 20 20 20 20
18 19 19 19 20 20 20 20 19 19 19 19 19 19 19 19 19 19 19 19 19 18 18 18 19 19 19 19 19 19 19 19 20 20 21 21 21 20 20 20 20 21 20
19 19 19 19 19 19 19 19 18 18 19 19 19 18 18 18 18 18 19 19 19 18 17 18 19 19 19 19 18 19 19 19 20 20 21 21 20 21 20 20 21 21 20
19 20 19 19 18 18 18 18 18 18 18 17 17 17 17 17 17 18 18 18 18 18 18 18 18 18 18 18 18 19 19 19 19 20 21 20 20 21 21 20 21 21 20
18 19 18 18 17 18 17 18 18 18 18 18 17 17 17 17 17 17 17 17 18 18 18 18 18 18 18 18 18 18 18 18 18 19 20 20 20 20 21 21 21 22 21
16 18 17 16 17 17 17 18 18 18 18 17 17 17 17 17 17 17 17 18 18 18 18 18 19 19 19 19 19 18 18 18 18 18 19 20 20 20 20 20 21 21 21
15 17 15 16 17 17 17 17 17 17 17 17 17 18 17 17 17 17 18 18 18 19 19 19 19 19 19 18 18 18 18 18 19 20 20 21 19 20 20 20 19 20 20
15 15 15 15 17 15 14 14 15 16 17 17 17 17 18 18 17 18 17 17 17 17 17 17 17 17 17 16 16 17 17 17 17 18 19 19 19 19 19 19 19 18 18
14 14 15 15 16 15 15 16 16 16 16 17 16 16 16 17 14 15 15 15 16 15 15 15 15 15 15 15 15 16 16 16 16 17 17 17 18 18 17 17 17 17 18
13 13 14 14 14 14 15 16 15 15 15 14 14 14 14 14 15 14 14 14 14 13 14 13 14 14 14 15 15 15 15 15 15 16 16 16 16 16 15 16 17 17 16
12 12 13 14 14 14 15 15 14 15 14 13 14 14 14 14 14 14 14 13 13 13 13 13 14 14 14 14 14 14 14 14 14 14 14 14 14 14 14 14 14 13 15
13 13 13 14 15 15 15 15 14 14 14 14 13 14 13 14 13 13 13 13 13 13 13 13 13 13 13 13 13 13 13 13 13 13 14 13 13 13 14 14 14 13 13
13 13 14 14 15 15 15 14 14 13 13 13 12 13 13 13 12 13 12 12 12 12 12 12 12 12 12 13 13 12 12 12 12 13 13 13 13 13 13 13 13 13 13
13 13 14 14 15 15 15 15 14 13 12 12 12 12 12 12 12 12 11 11 11 11 11 11 11 12 12 12 12 12 12 12 12 12 12 12 11 11 11 12 12 12 12
14 13 14 14 15 15 14 14 13 13 12 11 11 11 11 11 11 11 11 10 10 10 10 10 11 11 11 11 11 12 12 12 12 12 12 12 11 11 10 10 11 11 11
14 14 14 14 14 14 13 13 12 11 11 10 9 10 10 10 10 10 10 10 10 10 10 10 10 11 10 10 11 12 12 12 11 11 10 10 10 8 8 8 8 7 8
15 14 14 14 13 13 12 12 12 11 10 9 9 9 9 9 9 9 10 9 9 9 9 9 9 10 9 10 11 11 11 12 10 9 9 9 9 9 9 6 6 6 6
15 14 13 13 12 12 12 11 11 10 9 8 8 8 9 9 8 9 9 8 8 8 8 8 9 8 8 9 10 10 10 10 10 8 8 8 7 7 7 6 5 4 4
14 14 13 12 12 11 11 11 10 10 9 8 8 7 8 8 8 7 8 8 7 8 7 7 8 7 7 8 9 10 9 8 8 7 6 6 6 5 5 4 5 3 3
14 13 12 11 11 11 10 10 10 9 8 7 7 7 7 7 7 7 7 7 6 6 6 6 7 6 6 7 9 9 8 7 6 5 5 5 4 4 4 3 2 1 1
13 12 12 11 11 11 11 11 10 9 8 7 6 6 6 6 6 6 6 6 6 6 5 5 6 5 5 5 5 5 5 7 6 4 3 3 3 3 2 2 1 0 -0
13 13 12 12 11 11 11 11 10 9 7 6 5 5 5 5 5 5 5 5 5 5 4 4 4 4 4 4 4 3 3 2 3 4 3 2 2 2 1 0 -1 -1 -1
13 13 12 12 11 11 12 11 10 9 7 6 6 5 4 5 4 5 4 4 4 4 4 3 3 3 3 3 3 3 3 3 0 0 3 2 2 1 0 -1 -2 -2 -2
14 13 13 12 11 11 11 11 10 9 8 6 6 5 4 4 4 4 4 4 4 3 3 3 3 2 2 1 1 2 1 1 1 0 1 1 1 1 1 0 -1 -1 -2
13 12 12 11 11 10 10 10 9 8 7 7 6 4 4 4 3 3 3 3 3 3 3 3 3 2 2 1 1 -0 -1 -0 -0 -0 0 -0 1 1 0 -0 -0 -1 -1
Height
780 781 780 779 783 787 789 792 795 797 798 801 803 805 808 809 810 810 811 813 815 816 817 818 818 818 819 818 819 819 818 817 817 817 817 817 818 818 819 818 817 817 818
779 781 782 782 783 787 790 793 796 798 800 803 805 807 809 811 811 811 812 814 815 817 818 819 819 819 819 819 819 819 818 817 817 816 816 817 817 819 819 818 818 817 818
781 781 783 785 784 787 791 794 797 800 802 804 806 808 810 811 812 813 814 815 816 817 818 820 819 819 819 819 819 819 818 817 816 815 815 816 817 816 818 819 818 817 818
782 783 785 787 787 788 791 794 798 801 803 805 806 808 810 812 814 815 816 816 817 817 818 818 819 819 820 819 819 818 817 817 816 816 814 815 817 815 816 817 814 816 817
782 784 787 789 790 790 793 796 798 801 803 805 808 809 811 814 815 816 817 818 818 818 818 818 819 819 819 818 818 817 817 816 815 815 814 813 814 814 814 815 812 813 815
783 785 788 789 791 791 794 797 799 802 804 807 809 810 812 814 817 817 817 818 818 817 817 817 818 818 818 818 817 817 817 816 815 814 813 813 813 814 813 814 812 811 812
785 785 787 789 790 792 794 796 799 802 805 807 809 811 813 813 817 817 817 818 819 818 817 817 818 817 817 817 816 816 816 815 813 813 812 811 811 813 813 813 812 811 811
785 785 788 790 791 794 796 798 800 802 804 805 807 809 811 812 816 818 818 818 819 818 817 817 817 816 816 816 815 815 814 813 812 811 811 810 810 811 812 812 812 811 810
786 786 789 791 793 795 797 798 800 802 802 804 805 809 810 809 816 816 818 817 817 817 816 816 816 815 814 815 814 814 814 812 810 809 810 810 809 811 811 811 810 811 809
788 789 790 792 794 796 798 801 802 804 804 804 808 808 809 807 815 815 818 817 816 816 815 815 816 813 813 813 812 812 812 810 810 810 810 811 809 809 808 807 807 808 806
789 790 791 793 795 797 798 801 803 804 805 807 807 809 811 810 812 817 818 817 816 816 815 816 814 813 812 813 812 811 809 809 810 810 810 810 809 808 807 806 805 805 805
788 790 791 793 795 797 800 801 803 803 805 808 807 809 810 810 814 818 817 816 816 816 816 815 812 811 811 811 810 810 809 809 809 808 808 809 808 808 807 806 806 805 803
788 790 792 793 795 797 800 802 803 804 807 808 809 809 810 812 814 816 816 816 816 816 815 814 812 812 812 811 811 810 810 809 809 808 808 808 807 806 806 806 805 803 801
787 789 791 793 794 797 800 801 804 805 806 807 809 809 810 812 814 815 816 816 816 816 815 814 814 813 813 812 812 810 810 810 809 808 808 807 807 805 806 805 804 803 801
783 787 790 793 795 796 799 801 803 804 805 807 808 810 811 813 815 816 816 817 817 816 815 814 814 814 814 814 812 811 810 809 809 809 809 807 806 806 807 805 804 803 801
781 786 790 793 795 795 797 799 801 803 805 807 808 810 812 814 815 816 817 818 817 816 816 815 815 814 813 813 812 811 811 810 809 809 809 809 808 807 806 806 804 802 801
780 785 790 793 795 795 797 800 802 804 806 808 810 811 813 814 815 816 817 817 817 816 815 815 814 814 813 813 812 811 811 811 810 810 809 809 809 809 807 805 805 803 800
778 785 790 792 795 797 799 802 804 805 806 809 810 812 814 815 815 816 817 817 816 815 815 814 813 813 812 812 812 811 811 811 810 810 810 810 810 810 809 808 806 804 803
775 783 789 794 796 798 800 803 805 807 808 810 812 813 814 815 815 816 816 817 817 816 815 814 813 812 812 811 810 812 812 811 811 811 811 811 811 812 811 809 807 806 804
776 782 788 794 798 800 801 803 806 807 809 811 813 814 815 815 816 816 816 817 817 815 814 814 813 813 812 810 810 811 813 812 813 813 815 815 814 813 812 811 808 806 805
772 780 787 792 797 799 801 803 804 806 809 811 813 815 816 816 817 816 815 816 816 815 814 813 811 812 811 811 811 813 815 816 816 816 816 816 816 817 815 812 811 809 806
769 777 784 790 794 796 798 800 802 804 809 811 814 816 816 817 816 815 815 815 815 814 814 812 811 812 813 812 814 815 817 818 820 819 819 818 820 819 817 816 813 812 809
765 772 780 787 791 794 796 799 803 806 809 812 815 816 817 817 816 815 814 814 815 815 814 815 814 815 816 816 815 816 819 825 823 822 820 823 822 822 821 819 816 814 811
762 769 776 782 789 793 794 796 798 801 806 811 812 814 815 816 814 815 815 815 815 816 816 817 817 817 817 817 819 819 820 822 825 827 824 825 825 824 824 822 819 816 814
760 767 773 780 787 791 793 795 798 803 806 808 811 813 815 816 816 816 816 816 815 815 818 819 819 820 821 821 819 821 823 824 827 827 829 828 828 827 826 824 823 821 819
760 765 771 778 784 789 793 795 797 800 805 807 809 812 814 815 816 817 817 817 816 817 821 821 822 823 822 823 823 823 824 827 831 830 830 830 829 828 827 826 826 824 821
Wind_Speed
15 17 19 21 18 16 16 15 14 14 15 14 14 13 12 12 12 12 12 11 10 9 9 8 7 7 7 7 7 8 9 10 10 9 9 7 6 5 5 2 4 5 2
21 18 17 20 20 17 16 16 16 16 16 15 15 15 13 12 11 11 11 10 10 9 8 6 5 5 6 7 8 9 10 10 10 10 9 9 7 7 6 2 2 2 1
22 20 18 18 21 19 18 17 16 16 17 16 15 14 12 11 10 10 9 9 8 7 6 4 3 3 4 5 6 7 9 10 11 12 12 11 9 8 4 4 0 1 2
22 21 19 17 19 20 20 19 18 17 16 15 15 14 14 12 11 8 7 6 5 4 4 3 4 5 5 6 6 8 9 11 13 13 13 13 11 11 7 7 2 2 2
22 20 18 16 18 20 19 19 19 19 17 16 15 15 14 12 9 6 5 3 2 2 3 4 6 6 7 8 9 10 11 12 13 14 14 13 18 5 8 7 2 1 1
22 20 18 19 19 18 18 18 16 14 14 13 12 11 11 8 3 3 2 1 1 2 3 5 7 8 9 9 10 11 12 12 13 13 14 13 13 13 8 9 5 4 4
22 21 19 20 19 19 18 18 17 15 13 12 10 9 7 6 3 2 1 1 3 3 4 6 7 8 9 10 10 11 11 12 13 13 13 14 14 11 12 10 7 5 6
23 23 20 17 15 16 17 17 16 16 14 12 10 8 8 7 3 2 2 2 3 4 6 7 8 8 9 10 10 11 12 13 14 14 14 14 15 6 6 7 8 6 6
23 24 20 17 15 15 17 18 17 16 15 14 15 12 10 9 4 4 4 5 5 7 8 10 11 11 11 11 12 11 13 14 14 13 15 19 17 10 9 7 7 8 6
20 20 18 16 14 14 15 13 13 13 12 13 11 12 11 11 8 10 10 11 12 12 13 15 13 12 10 8 9 9 10 11 13 15 19 14 15 4 6 3 7 10 8
17 17 17 17 16 16 18 17 16 16 16 15 13 10 9 9 5 6 9 11 14 11 12 12 9 10 11 9 9 10 10 12 12 11 16 16 17 14 13 12 11 12 14
20 20 16 16 17 17 16 15 14 14 12 10 12 11 9 8 8 4 7 10 11 8 8 8 9 11 13 13 14 15 15 14 12 10 10 18 19 16 16 16 15 15 17
19 20 19 19 20 18 14 15 13 11 9 9 11 12 10 6 8 7 7 7 6 8 9 9 12 13 14 15 16 16 15 14 14 14 13 17 18 18 18 17 17 17 16
20 18 20 20 20 15 14 14 16 13 9 7 11 12 12 9 8 8 8 6 7 9 10 12 12 13 13 14 15 14 16 15 16 15 15 16 19 19 16 15 14 15 16
24 22 21 16 14 20 21 23 19 16 11 8 11 11 11 11 10 10 8 8 8 9 12 12 12 13 13 14 12 14 14 15 14 14 14 15 21 24 22 20 16 15 16
26 22 20 17 18 19 21 19 17 13 11 7 11 13 13 13 10 8 7 9 11 11 9 10 11 12 13 13 13 13 15 13 14 13 13 14 20 22 23 23 20 19 20
26 24 21 17 15 17 17 17 16 15 10 12 13 14 15 14 12 7 8 11 11 7 8 9 11 11 12 13 12 13 13 12 19 17 22 17 19 22 24 28 27 27 27
30 26 23 20 17 17 18 18 18 16 14 13 12 13 15 14 11 7 10 12 10 6 8 9 12 13 13 16 10 14 14 15 19 20 20 21 18 17 17 21 20 25 26
32 26 19 18 18 20 19 21 19 19 18 14 12 12 13 13 11 8 12 12 7 6 11 11 13 16 17 19 12 13 14 20 20 20 22 22 21 19 18 18 20 23 25
29 23 22 19 19 19 21 22 20 19 16 11 11 10 11 13 12 10 11 12 8 10 13 13 13 16 17 17 13 13 21 25 23 25 25 25 24 23 21 21 20 20 23
32 27 22 20 17 19 22 23 23 22 16 13 11 10 11 11 11 11 12 12 12 13 14 15 15 17 22 20 14 23 26 28 29 24 25 25 26 24 24 25 24 22 22
32 27 23 20 21 22 24 24 23 21 15 15 13 11 11 12 12 12 13 13 12 13 14 15 17 16 19 21 9 3 2 3 18 25 25 20 23 24 25 24 24 22 22
34 32 26 21 24 23 23 25 25 23 20 19 15 14 12 12 13 13 14 12 12 13 17 16 16 15 14 16 21 7 3 1 4 9 19 22 17 22 25 24 23 24 22
32 31 26 22 19 27 27 30 28 24 21 21 17 14 13 12 13 12 13 13 14 15 15 15 15 15 14 14 8 18 17 9 3 3 8 17 9 17 25 25 24 28 23
32 28 29 26 21 18 15 18 21 18 25 23 16 15 14 13 13 12 13 13 16 16 15 15 16 16 15 16 16 8 12 16 15 6 2 9 8 10 19 24 25 24 26
31 30 27 22 19 16 17 17 23 30 26 21 19 19 17 15 14 13 13 13 15 16 14 14 15 15 16 15 16 18 18 9 8 7 3 4 7 4 13 19 22 22 20
Wind_Direction
119 130 134 136 129 121 115 112 107 106 107 118 123 121 116 109 104 101 96 91 82 77 69 61 53 42 25 13 8 1 1 360 357 354 354 356 356 352 15 54 70 105 46
129 127 125 127 128 123 119 116 113 110 113 115 117 116 112 108 107 103 99 94 85 72 63 51 39 24 12 355 352 351 350 347 342 337 335 335 353 337 330 342 150 117 32
113 120 122 124 126 126 123 119 118 115 117 117 118 117 116 115 111 106 106 106 103 92 79 55 23 356 340 329 335 339 341 336 333 329 323 329 358 340 282 265 194 61 64
123 116 116 123 125 127 126 125 119 119 121 122 121 111 102 99 101 105 114 116 101 91 69 36 356 356 330 327 324 325 328 328 327 326 321 327 337 290 211 210 106 33 36
129 134 133 133 126 126 127 125 123 121 120 117 110 106 101 101 107 117 113 109 98 36 359 347 333 326 320 320 321 323 323 322 322 322 319 323 339 274 212 217 171 217 242
129 144 132 138 129 129 128 129 133 128 127 129 126 120 110 113 111 104 115 342 318 326 327 331 326 326 326 324 326 323 322 322 320 320 315 316 326 290 229 254 259 277 253
131 140 139 133 135 135 144 148 143 147 145 144 141 141 149 138 170 167 153 294 315 321 343 339 330 334 328 325 324 323 323 322 323 325 321 314 323 329 260 264 264 269 253
133 140 140 148 155 151 157 150 154 158 160 161 160 148 138 107 108 81 48 17 351 350 353 347 337 340 342 343 343 341 339 334 324 320 324 323 330 327 273 257 269 273 260
140 143 145 143 164 149 145 155 158 155 149 136 130 125 124 111 79 61 34 33 22 15 16 19 14 18 17 22 9 3 3 0 0 354 342 336 324 309 310 301 304 294 296
138 136 139 145 152 155 141 136 131 123 117 120 123 119 115 104 80 53 34 48 49 46 42 43 37 32 33 26 13 20 7 10 9 18 11 358 5 343 357 338 279 290 282
139 139 145 144 143 137 132 129 129 121 113 105 97 98 100 92 54 56 39 49 51 41 42 37 31 20 11 13 3 2 356 352 350 5 18 22 9 7 356 340 324 313 312
150 151 153 148 147 141 137 135 131 131 131 136 132 123 107 102 98 87 55 41 50 31 54 47 22 21 26 23 17 12 10 7 5 3 359 358 6 4 1 356 351 341 313
166 164 162 149 141 133 138 135 126 124 136 139 139 123 115 132 121 116 87 62 49 39 50 35 28 34 31 23 16 19 15 7 3 2 352 357 1 2 353 347 342 339 340
164 168 164 161 156 153 156 149 141 131 131 123 133 121 114 114 113 97 87 71 57 48 49 35 37 33 34 24 21 12 5 15 17 18 16 6 2 5 358 352 349 349 348
164 170 166 169 163 161 154 144 143 142 136 129 128 130 121 117 108 106 99 88 65 58 48 38 33 29 32 22 11 3 23 26 23 25 21 35 45 40 35 26 13 5 354
164 170 167 168 150 149 147 149 146 153 152 144 126 128 121 108 109 114 100 90 63 46 47 38 32 29 33 15 7 32 30 28 26 34 48 39 36 30 33 33 34 32 31
161 162 167 164 164 154 153 144 135 143 139 127 120 131 121 115 103 111 102 91 67 45 41 43 39 38 30 11 21 37 29 31 64 61 55 47 45 47 46 45 44 36 32
153 158 155 157 158 148 142 144 136 132 127 122 120 120 129 116 116 115 99 83 72 47 40 51 39 36 22 7 35 45 42 76 66 62 55 53 44 37 25 33 33 35 30
152 150 150 156 151 149 146 139 136 136 129 123 114 112 120 117 106 98 99 84 81 54 47 51 56 37 16 7 28 34 83 74 81 68 56 49 43 39 31 23 25 32 30
148 148 147 150 150 147 146 140 134 131 130 134 127 118 118 126 115 102 105 93 72 63 54 53 56 45 22 12 39 68 89 80 73 59 54 48 41 37 33 30 25 28 26
146 146 151 154 161 157 148 147 142 136 139 133 129 126 124 119 133 116 100 102 78 64 58 54 65 47 29 25 92 89 88 77 67 64 50 44 38 35 35 36 34 32 23
146 151 159 167 170 171 168 166 160 154 148 141 137 124 121 121 115 112 102 93 87 75 60 58 59 61 51 38 44 65 23 79 60 59 56 45 39 39 37 35 34 34 32
152 158 163 173 182 186 190 173 150 145 142 136 130 122 111 111 104 100 97 93 89 83 69 62 59 62 62 59 55 74 66 21 340 40 47 48 34 40 34 30 34 31 32
157 162 164 170 176 157 160 160 162 159 158 159 142 131 121 113 106 103 104 101 90 83 72 66 67 65 68 62 70 65 74 77 74 350 22 23 52 44 42 38 33 30 27
160 161 167 159 153 155 168 174 170 168 150 145 142 129 119 109 104 101 107 101 97 87 82 71 78 70 76 76 74 85 81 58 46 57 43 353 27 43 49 32 29 27 27
152 147 149 154 156 165 154 157 163 151 151 147 146 140 130 119 113 106 99 97 97 94 90 86 84 80 79 85 78 77 70 70 44 40 30 328 338 68 56 42 30 25 23